�������l�o���
Date,Time,MP-1(��Sv/h),MP-2(��Sv/h),MP-3(��Sv/h),MP-4(��Sv/h),MP-5(��Sv/h),MP-6(��Sv/h),MP-7(��Sv/h),MP-8(��Sv/h),����,����(m/s),���J
2020/04/11,00:00,0.698,1.019,0.676,1.226,0.882,0.399,0.696,0.661,�k��,5.4,��
2020/04/11,00:10,0.699,1.016,0.676,1.227,0.879,0.399,0.697,0.659,�k��,6.7,��
2020/04/11,00:20,0.699,1.017,0.676,1.226,0.883,0.398,0.696,0.660,���k��,7.7,��
2020/04/11,00:30,0.700,1.017,0.675,1.228,0.881,0.398,0.698,0.660,���k��,7.8,��
2020/04/11,00:40,0.699,1.014,0.674,1.226,0.881,0.399,0.695,0.660,�k��,7.3,��
2020/04/11,00:50,0.699,1.017,0.677,1.227,0.881,0.398,0.698,0.660,���k��,6.6,��
2020/04/11,01:00,0.701,1.017,0.676,1.227,0.881,0.398,0.697,0.661,���k��,4.4,��
2020/04/11,01:10,0.698,1.016,0.677,1.226,0.883,0.398,0.697,0.660,���k��,4.2,��
2020/04/11,01:20,0.698,1.016,0.675,1.229,0.880,0.397,0.696,0.661,���k��,4.0,��
2020/04/11,01:30,0.700,1.017,0.679,1.226,0.879,0.398,0.696,0.660,��,4.9,��
2020/04/11,01:40,0.698,1.016,0.676,1.228,0.881,0.398,0.695,0.659,��,4.4,��
2020/04/11,01:50,0.698,1.016,0.678,1.226,0.882,0.398,0.696,0.660,��,4.8,��
2020/04/11,02:00,0.698,1.018,0.675,1.226,0.879,0.398,0.697,0.659,��,4.9,��
2020/04/11,02:10,0.697,1.016,0.676,1.228,0.879,0.399,0.696,0.661,���k��,4.5,��
2020/04/11,02:20,0.697,1.015,0.676,1.227,0.880,0.398,0.698,0.660,���k��,5.2,��
2020/04/11,02:30,0.699,1.016,0.677,1.225,0.879,0.397,0.696,0.658,�k��,8.5,��
2020/04/11,02:40,0.699,1.015,0.677,1.225,0.882,0.399,0.697,0.661,�k��,9.2,��
2020/04/11,02:50,0.697,1.015,0.675,1.226,0.881,0.398,0.696,0.660,�k��,7.6,��
2020/04/11,03:00,0.699,1.017,0.676,1.228,0.881,0.398,0.697,0.660,�k��,7.9,��
2020/04/11,03:10,0.699,1.014,0.676,1.224,0.881,0.398,0.695,0.660,�k��,8.3,��
2020/04/11,03:20,0.700,1.015,0.676,1.229,0.880,0.399,0.695,0.658,�k��,7.6,��
2020/04/11,03:30,0.699,1.015,0.677,1.228,0.882,0.398,0.697,0.659,�k��,5.7,��
2020/04/11,03:40,0.699,1.015,0.675,1.226,0.880,0.398,0.695,0.659,�k��,7.6,��
2020/04/11,03:50,0.698,1.015,0.675,1.227,0.881,0.397,0.697,0.659,�k��,6.8,��
2020/04/11,04:00,0.699,1.016,0.675,1.227,0.878,0.398,0.697,0.660,�k��,7.7,��
2020/04/11,04:10,0.698,1.015,0.676,1.226,0.879,0.399,0.696,0.661,�k��,6.3,��
2020/04/11,04:20,0.698,1.016,0.676,1.226,0.881,0.398,0.696,0.661,�k��,5.6,��
2020/04/11,04:30,0.698,1.014,0.676,1.226,0.879,0.399,0.696,0.659,�k��,4.8,��
2020/04/11,04:40,0.698,1.015,0.678,1.227,0.879,0.399,0.695,0.660,�k��,5.1,��
2020/04/11,04:50,0.698,1.016,0.676,1.226,0.878,0.397,0.695,0.660,�k��,5.6,��
2020/04/11,05:00,0.697,1.014,0.674,1.226,0.880,0.398,0.694,0.661,�k��,3.9,��
2020/04/11,05:10,0.698,1.015,0.676,1.228,0.879,0.398,0.696,0.659,�k��,4.4,��
2020/04/11,05:20,0.700,1.016,0.676,1.228,0.881,0.399,0.695,0.659,�k��,5.7,��
2020/04/11,05:30,0.699,1.017,0.675,1.226,0.881,0.397,0.696,0.659,�k��,4.4,��
2020/04/11,05:40,0.697,1.015,0.675,1.228,0.879,0.398,0.696,0.660,�k��,3.9,��
2020/04/11,05:50,0.696,1.017,0.674,1.226,0.880,0.398,0.694,0.661,�k��,3.1,��
2020/04/11,06:00,0.698,1.015,0.675,1.226,0.881,0.400,0.696,0.660,�k��,2.3,��
2020/04/11,06:10,0.698,1.014,0.677,1.226,0.878,0.399,0.696,0.661,�k�k��,1.2,��
2020/04/11,06:20,0.699,1.014,0.675,1.226,0.880,0.397,0.696,0.659,�k,1.2,��
2020/04/11,06:30,0.699,1.016,0.675,1.225,0.881,0.399,0.697,0.659,�k,1.9,��
2020/04/11,06:40,0.700,1.016,0.675,1.228,0.878,0.399,0.696,0.659,�k�k��,2.3,��
2020/04/11,06:50,0.701,1.015,0.676,1.230,0.878,0.399,0.695,0.661,�k,2.6,��
2020/04/11,07:00,0.698,1.016,0.676,1.228,0.879,0.398,0.696,0.659,�k,2.6,��
2020/04/11,07:10,0.700,1.015,0.674,1.227,0.880,0.398,0.697,0.660,�k,3.6,��
2020/04/11,07:20,0.699,1.018,0.675,1.227,0.880,0.400,0.696,0.661,�k,2.9,��
2020/04/11,07:30,0.699,1.016,0.677,1.226,0.882,0.399,0.696,0.662,�k�k��,2.8,��
2020/04/11,07:40,0.698,1.015,0.676,1.229,0.879,0.398,0.698,0.662,�k�k��,3.2,��
2020/04/11,07:50,0.700,1.016,0.675,1.228,0.880,0.399,0.698,0.661,�k��,4.0,��
2020/04/11,08:00,0.700,1.015,0.676,1.229,0.880,0.396,0.698,0.661,�k�k��,4.1,��
2020/04/11,08:10,0.699,1.015,0.676,1.226,0.882,0.398,0.699,0.660,�k�k��,5.0,��
2020/04/11,08:20,0.699,1.014,0.676,1.227,0.882,0.397,0.696,0.661,�k�k��,5.2,��
2020/04/11,08:30,0.700,1.014,0.677,1.228,0.882,0.398,0.696,0.661,�k�k��,4.8,��
2020/04/11,08:40,0.701,1.014,0.676,1.227,0.881,0.398,0.696,0.662,�k�k��,4.5,��
2020/04/11,08:50,0.701,1.013,0.678,1.226,0.881,0.398,0.695,0.659,�k�k��,4.7,��
2020/04/11,09:00,0.701,1.013,0.676,1.228,0.882,0.398,0.695,0.660,�k��,3.7,��
2020/04/11,09:10,0.701,1.015,0.676,1.229,0.880,0.397,0.694,0.659,�k��,4.8,��
2020/04/11,09:20,0.701,1.012,0.679,1.227,0.880,0.398,0.695,0.659,�k�k��,4.4,��
2020/04/11,09:30,0.701,1.010,0.678,1.228,0.882,0.397,0.697,0.659,�k��,5.0,��
2020/04/11,09:40,0.702,1.015,0.677,1.227,0.884,0.398,0.696,0.659,�k��,5.0,��
2020/04/11,09:50,0.702,1.014,0.677,1.228,0.881,0.398,0.696,0.659,���k��,4.5,��
2020/04/11,10:00,0.701,1.014,0.680,1.228,0.884,0.397,0.697,0.658,���k��,5.9,��
2020/04/11,10:10,0.701,1.013,0.678,1.231,0.883,0.398,0.696,0.658,���k��,6.3,��
2020/04/11,10:20,0.702,1.014,0.678,1.230,0.882,0.396,0.694,0.658,���k��,5.1,��
2020/04/11,10:30,0.703,1.013,0.678,1.228,0.884,0.396,0.697,0.660,���k��,4.9,��
2020/04/11,10:40,0.701,1.015,0.679,1.229,0.885,0.399,0.697,0.659,��,4.3,��
2020/04/11,10:50,0.704,1.014,0.678,1.229,0.882,0.398,0.695,0.660,���k��,4.5,��
2020/04/11,11:00,0.701,1.014,0.678,1.230,0.882,0.397,0.695,0.659,���k��,4.2,��
2020/04/11,11:10,0.704,1.015,0.676,1.232,0.883,0.398,0.696,0.657,���k��,4.0,��
2020/04/11,11:20,0.702,1.017,0.678,1.231,0.884,0.396,0.697,0.657,���k��,3.9,��
2020/04/11,11:30,0.702,1.018,0.677,1.231,0.882,0.399,0.696,0.658,��,3.8,��
2020/04/11,11:40,0.703,1.017,0.677,1.228,0.882,0.397,0.697,0.659,��,3.9,��
2020/04/11,11:50,0.702,1.017,0.677,1.230,0.882,0.397,0.695,0.658,��,3.6,��
2020/04/11,12:00,0.701,1.016,0.678,1.231,0.883,0.396,0.697,0.660,���k��,4.3,��
2020/04/11,12:10,0.702,1.018,0.677,1.229,0.884,0.397,0.697,0.658,���k��,4.1,��
2020/04/11,12:20,0.702,1.018,0.677,1.230,0.882,0.400,0.696,0.660,���k��,4.4,��
2020/04/11,12:30,0.702,1.019,0.677,1.230,0.884,0.399,0.698,0.660,��,4.0,��
2020/04/11,12:40,0.703,1.016,0.677,1.231,0.884,0.399,0.697,0.659,��,3.4,��
2020/04/11,12:50,0.701,1.018,0.680,1.231,0.881,0.400,0.698,0.661,��,3.8,��
2020/04/11,13:00,0.702,1.018,0.675,1.231,0.884,0.400,0.696,0.659,��,3.8,��
2020/04/11,13:10,0.702,1.017,0.679,1.229,0.884,0.400,0.696,0.659,���쓌,3.7,��
2020/04/11,13:20,0.700,1.017,0.677,1.233,0.886,0.401,0.697,0.659,��,4.2,��
2020/04/11,13:30,0.702,1.016,0.676,1.231,0.884,0.401,0.696,0.659,��,4.1,�L
2020/04/11,13:40,0.699,1.015,0.676,1.232,0.886,0.400,0.697,0.659,��,3.7,��
2020/04/11,13:50,0.701,1.019,0.677,1.233,0.886,0.400,0.698,0.660,���k��,3.6,��
2020/04/11,14:00,0.701,1.018,0.677,1.231,0.886,0.400,0.697,0.660,��,3.4,��
2020/04/11,14:10,0.701,1.018,0.678,1.232,0.884,0.399,0.699,0.659,��,3.9,��
2020/04/11,14:20,0.701,1.022,0.677,1.230,0.887,0.400,0.696,0.660,���쓌,4.2,��
2020/04/11,14:30,0.702,1.018,0.676,1.230,0.886,0.398,0.699,0.660,��,3.8,��
2020/04/11,14:40,0.702,1.021,0.676,1.230,0.886,0.401,0.697,0.661,���쓌,3.9,��
2020/04/11,14:50,0.703,1.020,0.678,1.233,0.885,0.400,0.697,0.659,�쓌,3.4,��
2020/04/11,15:00,0.701,1.021,0.677,1.233,0.886,0.400,0.696,0.658,�쓌,4.8,��
2020/04/11,15:10,0.702,1.021,0.677,1.231,0.883,0.398,0.697,0.657,��쓌,5.4,��
2020/04/11,15:20,0.701,1.021,0.679,1.233,0.886,0.401,0.699,0.659,��쓌,5.9,��
2020/04/11,15:30,0.701,1.022,0.679,1.229,0.886,0.400,0.696,0.661,��쓌,5.8,��
2020/04/11,15:40,0.704,1.025,0.678,1.231,0.885,0.399,0.697,0.660,��쓌,6.4,��
2020/04/11,15:50,0.703,1.023,0.680,1.229,0.886,0.401,0.698,0.660,��쓌,6.8,��
2020/04/11,16:00,0.703,1.021,0.679,1.228,0.886,0.401,0.698,0.658,��쓌,6.4,��
2020/04/11,16:10,0.702,1.024,0.680,1.229,0.885,0.402,0.697,0.659,��쓌,6.5,��
2020/04/11,16:20,0.703,1.022,0.678,1.230,0.886,0.400,0.697,0.659,��쓌,6.9,��
2020/04/11,16:30,0.700,1.024,0.678,1.231,0.885,0.401,0.697,0.660,��쓌,7.0,��
2020/04/11,16:40,0.700,1.023,0.679,1.229,0.886,0.401,0.697,0.661,��쓌,7.7,��
2020/04/11,16:50,0.700,1.025,0.680,1.231,0.886,0.400,0.699,0.661,��쓌,7.3,��
2020/04/11,17:00,0.703,1.025,0.680,1.230,0.887,0.402,0.698,0.662,��쓌,6.6,��
2020/04/11,17:10,0.705,1.023,0.678,1.229,0.885,0.401,0.697,0.662,��쓌,5.9,��
2020/04/11,17:20,0.703,1.025,0.679,1.231,0.887,0.402,0.698,0.661,��쓌,6.7,��
2020/04/11,17:30,0.704,1.023,0.680,1.231,0.885,0.401,0.698,0.662,��쓌,5.8,��
2020/04/11,17:40,0.702,1.023,0.679,1.233,0.883,0.401,0.697,0.662,��쓌,5.6,��
2020/04/11,17:50,0.705,1.025,0.680,1.231,0.888,0.401,0.697,0.663,��,5.5,��
2020/04/11,18:00,0.703,1.025,0.680,1.230,0.889,0.402,0.696,0.662,��,6.1,��
2020/04/11,18:10,0.703,1.025,0.680,1.232,0.888,0.401,0.697,0.662,��,5.1,��
2020/04/11,18:20,0.704,1.023,0.680,1.231,0.889,0.401,0.698,0.662,��,5.0,��
2020/04/11,18:30,0.705,1.026,0.679,1.232,0.889,0.401,0.701,0.662,��,4.8,��
2020/04/11,18:40,0.703,1.023,0.678,1.233,0.887,0.403,0.698,0.663,��쓌,4.7,��
2020/04/11,18:50,0.703,1.024,0.679,1.234,0.887,0.401,0.698,0.662,��쓌,5.4,��
2020/04/11,19:00,0.704,1.026,0.678,1.232,0.889,0.401,0.701,0.661,��,6.2,��
2020/04/11,19:10,0.703,1.024,0.682,1.232,0.889,0.400,0.700,0.662,��,6.0,��
2020/04/11,19:20,0.706,1.024,0.683,1.232,0.889,0.400,0.699,0.661,��,5.5,��
2020/04/11,19:30,0.702,1.023,0.681,1.232,0.887,0.401,0.699,0.661,��,5.3,��
2020/04/11,19:40,0.703,1.027,0.679,1.235,0.887,0.401,0.698,0.662,��,5.8,��
2020/04/11,19:50,0.702,1.025,0.679,1.231,0.887,0.400,0.700,0.662,��,5.8,��
2020/04/11,20:00,0.704,1.025,0.679,1.231,0.888,0.401,0.698,0.662,��,6.1,��
2020/04/11,20:10,0.703,1.022,0.679,1.234,0.885,0.400,0.699,0.661,��,7.1,��
2020/04/11,20:20,0.703,1.025,0.680,1.232,0.886,0.402,0.701,0.661,��,7.6,��
2020/04/11,20:30,0.702,1.023,0.680,1.234,0.887,0.402,0.699,0.661,��,7.6,��
2020/04/11,20:40,0.704,1.024,0.679,1.232,0.888,0.401,0.699,0.661,��,7.8,��
2020/04/11,20:50,0.705,1.023,0.680,1.232,0.887,0.402,0.700,0.663,��,8.5,��
2020/04/11,21:00,0.703,1.025,0.679,1.234,0.889,0.401,0.699,0.661,��,8.1,��
2020/04/11,21:10,0.705,1.024,0.681,1.235,0.887,0.401,0.699,0.661,��쐼,7.4,��
2020/04/11,21:20,0.704,1.024,0.682,1.233,0.887,0.401,0.699,0.661,��,7.6,��
2020/04/11,21:30,0.703,1.022,0.680,1.233,0.884,0.401,0.698,0.663,��,7.4,��
2020/04/11,21:40,0.705,1.025,0.680,1.232,0.887,0.402,0.699,0.662,��,7.7,��
2020/04/11,21:50,0.705,1.025,0.680,1.235,0.887,0.402,0.699,0.662,��,7.3,��
2020/04/11,22:00,0.702,1.025,0.680,1.233,0.888,0.402,0.700,0.661,��,7.9,��
2020/04/11,22:10,0.705,1.022,0.681,1.233,0.886,0.401,0.699,0.664,��,7.4,��
2020/04/11,22:20,0.705,1.027,0.681,1.234,0.888,0.400,0.699,0.660,��쐼,7.1,��
2020/04/11,22:30,0.705,1.023,0.681,1.232,0.889,0.401,0.700,0.662,��쐼,7.3,��
2020/04/11,22:40,0.704,1.023,0.678,1.230,0.889,0.403,0.699,0.661,��쐼,7.5,��
2020/04/11,22:50,0.704,1.023,0.679,1.233,0.889,0.401,0.698,0.662,��쐼,7.4,��
2020/04/11,23:00,0.706,1.026,0.680,1.234,0.885,0.401,0.699,0.663,��쐼,7.1,��
2020/04/11,23:10,0.706,1.023,0.680,1.234,0.887,0.401,0.699,0.662,��쐼,7.6,��
2020/04/11,23:20,0.704,1.025,0.680,1.235,0.887,0.402,0.700,0.663,��쐼,7.6,��
2020/04/11,23:30,0.702,1.026,0.680,1.233,0.888,0.401,0.700,0.662,��쐼,6.7,��
2020/04/11,23:40,0.704,1.024,0.681,1.232,0.887,0.401,0.699,0.663,��쐼,7.7,��
2020/04/11,23:50,0.703,1.025,0.681,1.233,0.887,0.402,0.699,0.662,��쐼,7.9,��
